Location: Castillon
(43.0896°N, 0.2156°E)
Time: 15:21:52
(UTC+00:00)

Cosmos 1455 Rocket - Pass Details

Date: 16 June 2021
Orbit: 605 x 629 km, 82.5° (Epoch: 01 August)

Event Time Altitude Azimuth Distance (km) Brightness Sun altitude
Rises 22:05:05 0° 342° (NNW) 2,923 8.1 -18.5°
Reaches altitude 10° 22:07:28 10° 333° (NNW) 2,014 7.0 -18.7°
Maximum altitude 22:11:28 33° 270° (W) 1,056 4.4 -19.0°
Enters shadow 22:14:02 19° 217° (SW) 1,521 4.8 -19.2°
